Wind_Speed
37 38 38 37 38 39 40 40 40 37 36 34 34 34 35 34 32 31 29 28 29 30 30 28 27 28 28 27 26 26 27 27 26 26 26 25 25 23 22 24 26 24 23 23 22 22 23 24 23 22 23 23 20 19 18 16 17 19 18 17 18 17 17 15 10 8 10 11 9 9 15 16 17 16 16 16 17 17 18 19 19 20 20 20 20
37 38 39 38 39 39 39 40 40 38 36 35 35 34 34 34 33 30 29 29 29 30 31 31 29 28 28 28 28 28 28 29 28 27 28 27 27 25 24 25 27 27 25 25 25 24 23 25 25 23 22 24 23 22 21 19 18 20 21 20 20 19 20 19 15 11 12 13 13 13 13 14 16 18 18 18 17 16 18 19 19 20 20 20 20
37 38 38 38 38 39 39 39 39 38 36 35 35 34 33 34 34 32 30 29 30 30 31 32 31 30 29 29 30 29 29 30 30 29 29 29 29 28 26 26 28 29 28 28 27 26 25 25 26 25 23 23 24 24 23 22 21 22 22 22 22 21 21 21 18 15 14 14 15 16 17 15 14 15 16 17 17 16 17 19 18 18 19 19 19
35 36 36 35 36 38 38 37 37 37 36 34 34 34 32 31 33 34 31 28 29 31 30 31 31 32 31 30 31 31 31 31 32 31 30 31 31 30 28 28 29 30 30 29 29 28 27 27 27 27 25 24 25 25 24 24 24 23 23 24 23 22 21 22 22 19 16 15 16 18 19 18 17 16 14 15 16 17 17 17 17 17 18 18 19
34 35 35 34 34 36 36 35 34 35 35 33 33 34 32 30 31 32 32 30 29 30 31 31 31 32 33 32 32 32 32 32 33 32 31 32 32 32 31 30 29 30 31 31 30 30 29 29 28 28 28 26 26 26 26 25 24 24 24 24 24 24 22 22 23 23 20 17 17 17 18 18 19 20 19 17 16 17 18 18 17 17 17 18 19
34 34 34 35 35 35 35 36 35 35 35 34 33 34 33 31 30 30 32 32 30 30 31 32 32 33 34 34 33 33 34 33 34 34 32 32 32 32 31 31 30 30 31 31 31 31 31 30 29 29 30 30 28 28 28 27 26 25 25 25 24 24 24 23 22 24 24 22 19 17 17 18 18 19 20 21 19 18 19 19 19 18 18 19 20
34 34 34 35 36 36 37 38 37 36 37 36 34 33 33 32 31 30 31 32 31 30 31 33 34 34 34 35 35 34 35 34 34 35 34 32 32 32 31 31 30 30 30 31 31 31 31 31 31 31 32 32 31 30 29 29 28 27 26 25 25 24 25 25 23 23 24 24 22 19 18 18 18 17 17 19 20 20 19 19 19 20 21 20 20
34 34 34 34 36 37 38 39 39 38 38 38 36 34 33 33 33 32 32 32 32 31 31 32 34 34 34 36 36 35 35 35 35 35 35 33 32 32 31 30 30 30 30 30 31 31 32 32 32 33 33 34 34 33 32 31 30 29 28 26 26 26 25 25 25 24 23 22 22 21 20 19 19 19 18 18 20 21 21 19 19 20 22 23 23
33 33 34 35 35 36 37 37 39 39 38 38 38 36 35 35 35 34 33 33 32 32 32 31 32 33 34 35 35 35 35 36 37 36 37 36 33 32 32 32 31 30 30 30 31 32 32 32 32 33 35 36 37 36 35 34 33 32 31 30 28 28 26 25 25 25 24 22 20 20 20 20 21 21 20 21 22 22 22 21 19 19 19 21 23
34 34 34 34 34 35 36 36 37 38 38 38 39 39 37 36 35 35 35 34 33 33 33 32 31 33 34 34 35 36 36 37 39 39 39 39 37 34 33 33 33 32 31 31 32 32 33 32 32 33 35 36 37 38 38 37 36 35 35 34 33 31 29 27 26 26 24 23 22 21 19 20 22 23 22 22 23 22 21 21 21 20 18 17 19
35 35 33 33 34 34 35 35 35 37 38 38 38 39 38 37 36 37 36 35 35 34 33 33 32 32 33 34 35 36 37 38 40 42 43 43 41 38 35 34 34 34 33 32 33 33 33 33 33 33 35 37 38 39 39 39 39 38 37 36 36 36 33 30 28 27 26 24 23 23 21 20 22 24 24 23 22 22 22 22 22 21 18 16 15
33 35 33 32 35 35 35 35 35 35 37 38 38 39 39 38 36 36 37 36 35 34 34 35 35 33 33 34 34 35 37 39 41 44 45 46 44 41 37 35 34 35 35 34 34 33 33 33 34 33 35 38 40 40 41 41 41 40 38 37 37 38 37 36 33 31 29 26 24 25 25 23 23 25 25 24 24 24 24 24 23 22 21 18 16
30 34 34 33 35 36 34 34 35 35 36 37 37 37 38 38 37 36 37 37 36 35 35 35 36 35 34 34 35 35 35 37 41 44 46 47 47 44 39 36 35 35 36 36 35 35 35 35 34 34 34 36 40 41 42 43 43 42 41 39 38 39 39 39 38 35 33 30 28 28 28 26 24 26 27 25 24 24 24 25 25 23 23 21 20
28 31 34 33 33 35 35 34 35 34 34 35 34 35 36 38 37 36 35 35 36 36 36 36 36 38 37 35 35 36 35 35 39 43 46 47 48 47 43 38 37 37 37 38 37 37 38 37 36 36 34 34 38 42 43 44 44 44 43 42 41 40 39 41 40 38 36 34 32 31 30 29 27 27 27 27 26 24 24 25 24 22 21 20 18
26 28 33 33 33 34 35 34 33 33 32 33 33 34 35 36 36 34 32 34 37 37 36 36 36 38 38 37 35 35 35 35 37 41 45 47 48 50 47 42 39 38 37 38 39 39 40 39 38 37 35 35 37 40 42 43 44 44 45 45 45 42 41 43 43 42 40 38 36 33 30 30 29 27 26 26 26 24 21 21 20 17 15 15 15
25 25 30 33 33 33 33 33 32 32 32 32 32 32 33 33 34 34 32 31 33 34 34 35 35 36 37 37 36 35 34 35 37 40 43 46 48 50 50 46 41 39 38 38 39 40 40 40 39 38 37 38 38 40 41 41 41 42 44 45 45 44 44 45 45 45 43 41 38 34 30 29 28 27 26 25 25 24 20 17 16 13 11 12 13
26 25 27 31 32 32 32 32 32 32 31 31 33 33 32 32 32 33 32 29 29 30 32 33 33 33 34 36 38 38 35 35 38 40 42 45 48 50 51 48 42 40 39 38 39 40 40 41 40 39 39 39 39 39 40 41 40 40 42 43 42 42 43 44 44 44 45 43 41 37 33 29 26 26 25 23 24 25 22 19 17 16 15 12 12
27 26 25 29 31 31 32 32 31 32 32 32 32 31 31 31 30 31 33 31 29 29 29 30 31 32 33 35 37 38 37 36 37 39 40 43 47 50 51 48 43 41 39 37 38 39 40 42 42 41 40 40 39 39 40 42 41 39 39 39 38 39 42 42 40 40 43 44 43 40 36 33 30 27 26 23 22 25 26 24 21 20 18 16 15
26 26 25 27 30 31 31 32 32 32 32 31 30 30 30 29 29 30 31 31 30 28 27 28 30 31 32 34 35 37 37 35 36 38 39 40 44 48 48 45 42 41 39 38 37 37 38 39 41 44 43 40 39 40 42 44 44 42 39 37 36 40 44 44 40 38 40 44 45 42 40 39 35 32 30 27 23 23 26 27 25 24 21 19 19
25 26 25 25 29 31 30 31 31 31 30 30 29 29 29 27 27 28 28 29 29 29 28 27 28 29 30 30 32 35 35 34 34 37 37 37 41 45 45 43 42 41 38 35 35 35 35 35 36 40 43 43 42 42 43 46 47 45 42 38 39 42 42 42 42 40 39 43 46 45 42 40 37 34 32 31 28 26 26 26 27 26 22 19 18
24 25 25 25 27 30 29 29 30 29 27 27 27 27 28 27 26 27 26 26 28 28 28 27 26 26 27 28 29 31 32 32 33 35 36 36 37 42 44 43 41 38 34 32 32 33 34 34 33 34 38 42 45 45 45 47 49 49 47 46 47 44 38 38 41 40 37 39 42 42 40 38 35 33 32 32 31 30 29 29 29 28 26 22 19
24 25 26 25 25 26 27 27 28 27 26 26 26 26 27 26 26 26 25 25 26 27 27 27 26 25 25 26 27 28 28 29 31 33 35 35 35 38 43 43 41 35 31 30 31 32 31 32 32 33 35 38 43 47 47 47 49 51 53 53 50 45 39 37 39 38 37 37 38 39 40 38 36 34 33 34 34 33 33 32 33 31 29 26 23
25 25 26 25 24 24 25 25 25 25 25 26 26 25 25 25 25 26 26 25 24 24 24 25 24 23 23 23 24 25 25 26 28 30 32 33 34 36 39 42 41 37 33 31 32 32 31 31 31 32 33 35 39 45 49 49 50 53 56 55 51 46 40 37 37 38 38 38 38 39 40 40 39 37 37 36 36 36 36 35 35 33 28 25 25
23 23 24 25 23 22 23 23 24 24 24 25 26 24 24 25 24 25 25 24 22 21 22 23 23 22 21 20 19 20 20 21 23 26 28 30 32 34 37 39 41 41 39 35 34 32 31 31 32 32 34 35 36 40 47 52 55 56 57 55 52 46 41 37 37 38 37 37 37 38 39 41 42 41 41 40 37 36 36 35 33 32 28 25 25
19 19 20 22 21 20 20 21 23 23 22 23 23 23 23 23 22 22 23 23 21 19 18 19 19 18 17 17 17 18 18 18 19 21 23 26 28 30 33 36 39 42 43 40 37 35 33 32 31 31 32 34 35 37 43 52 57 58 57 56 53 48 43 39 37 37 37 36 36 36 36 39 41 41 41 40 38 35 34 32 30 29 28 26 23
14 15 16 17 18 18 18 18 20 21 20 19 20 20 21 21 21 21 20 19 19 18 17 16 17 16 15 16 17 16 16 16 16 15 16 21 26 30 32 35 37 41 44 44 42 39 37 36 34 33 33 35 36 37 40 45 52 56 57 57 55 52 46 41 38 38 38 38 38 37 37 38 38 37 37 38 38 37 35 33 31 30 32 30 26
10 11 12 13 15 17 17 16 17 18 18 18 18 19 20 19 19 19 18 18 17 17 16 14 14 14 15 16 16 16 15 12 7 3 4 9 16 22 28 33 36 39 43 45 44 42 39 39 39 38 38 38 40 40 40 40 45 53 56 56 56 55 51 46 44 42 41 40 40 39 38 37 37 37 36 36 36 38 38 36 33 33 35 33 29
8 9 10 11 13 15 16 16 17 17 16 13 11 13 17 19 17 16 16 17 16 16 17 17 16 16 15 13 13 14 10 4 5 7 6 4 1 5 11 17 25 31 37 42 45 45 42 40 38 37 36 37 39 40 39 39 42 47 51 53 55 55 53 50 47 45 44 43 40 37 36 36 37 39 39 37 36 37 38 37 34 34 36 34 29
8 10 11 11 13 14 14 15 17 17 15 12 11 7 8 11 12 12 11 11 10 11 14 15 12 10 5 2 2 4 6 8 7 5 5 4 2 2 4 7 11 17 23 28 35 38 37 35 35 34 33 35 37 37 38 40 42 45 48 50 49 49 49 48 46 44 44 41 38 36 36 37 38 40 39 35 34 36 37 36 34 34 34 32 28
6 8 6 5 10 14 15 15 17 18 17 21 22 21 18 13 13 14 12 9 7 6 8 10 9 8 11 12 11 10 10 9 6 6 5 5 6 6 8 10 12 15 18 20 23 27 29 31 32 33 33 34 35 36 38 39 40 43 45 45 43 42 44 45 45 44 42 40 38 38 38 38 37 39 38 35 34 36 38 37 36 35 34 31 27
6 7 9 10 8 7 6 13 18 15 15 24 26 26 27 24 20 17 14 11 9 8 8 10 9 8 9 11 12 11 10 9 8 7 7 6 6 6 6 8 11 15 20 22 21 22 24 26 28 31 32 33 35 37 38 38 38 39 39 39 40 42 44 46 46 42 38 38 38 39 39 40 39 40 40 39 38 39 39 38 37 36 33 31 28
9 9 10 11 13 13 11 7 13 12 14 22 25 23 24 24 22 20 17 14 12 11 10 11 11 11 12 13 14 14 13 12 11 11 12 12 11 10 9 9 8 7 9 13 17 19 21 22 24 26 28 29 32 35 35 36 37 37 37 37 40 45 49 51 50 46 43 43 42 40 40 41 42 42 41 40 40 38 37 36 36 34 31 29 27
9 8 8 9 11 13 13 12 12 13 14 17 18 17 18 18 18 19 21 20 18 17 16 15 16 17 17 17 17 17 16 15 15 15 15 15 14 14 13 12 12 14 13 9 7 11 14 17 20 24 26 28 31 32 33 34 36 38 40 41 43 47 50 51 49 46 43 43 43 42 41 40 40 40 40 40 39 37 35 34 33 31 29 26 24
9 9 8 9 10 10 10 11 12 12 12 14 16 16 17 18 18 18 19 19 20 20 21 20 19 18 19 18 18 17 17 17 17 17 18 18 17 17 16 16 16 18 18 16 11 7 8 11 15 19 22 26 29 31 33 35 35 36 39 42 44 45 46 46 47 46 42 39 40 41 41 41 40 38 37 36 35 33 32 32 30 28 27 25 23
10 10 9 10 10 10 9 9 9 10 11 11 13 16 19 19 18 18 16 15 15 17 18 19 18 17 18 18 18 17 17 17 17 18 19 20 20 20 18 16 16 16 16 14 12 10 9 12 15 18 21 24 27 29 32 35 36 36 37 39 40 42 43 43 46 47 45 43 43 43 41 40 40 39 37 37 36 34 32 31 29 27 26 25 23
9 9 10 11 11 10 10 9 9 10 10 8 9 14 18 18 17 17 17 16 14 14 14 15 16 16 15 16 17 16 16 16 16 17 18 19 20 20 18 16 15 14 14 14 13 13 14 15 18 20 23 25 27 29 31 33 35 36 37 38 38 37 37 39 43 48 48 45 43 43 43 41 40 40 39 38 36 35 33 31 28 27 26 25 24
9 9 10 10 10 10 11 12 13 14 14 14 13 13 14 16 16 16 16 15 13 12 12 13 13 12 11 12 12 12 12 13 14 14 15 16 17 17 15 14 14 14 14 15 15 15 15 15 17 19 20 21 21 23 26 29 31 33 36 39 39 37 35 34 33 34 35 37 39 40 40 40 41 41 41 38 35 35 34 31 29 27 26 26 25
12 11 10 9 10 12 13 14 13 13 13 15 16 14 14 16 17 15 14 14 13 12 11 12 11 9 8 8 10 9 10 11 12 13 12 13 14 14 13 13 13 13 14 15 15 15 14 14 16 17 15 13 13 14 15 15 15 17 21 27 29 29 30 31 25 19 23 30 38 41 40 37 36 34 33 33 32 32 33 32 31 29 27 27 26
12 10 10 11 12 12 11 10 11 12 13 14 15 13 13 14 14 13 12 13 12 12 12 11 10 9 7 8 10 11 10 10 11 11 11 11 12 12 12 12 12 12 13 14 14 15 14 14 16 16 13 12 13 15 16 16 19 25 28 24 21 22 19 9 13 28 33 31 32 34 35 35 35 34 32 29 28 28 30 31 30 29 27 26 25
10 7 7 9 11 12 10 10 11 14 14 13 13 12 12 12 12 12 12 12 12 12 11 10 9 9 9 10 11 12 11 10 10 9 9 9 10 10 11 11 11 11 12 13 14 15 15 14 15 14 13 12 14 16 18 21 22 26 35 40 42 44 44 37 24 23 31 34 33 31 31 33 33 32 30 28 27 26 26 26 27 27 27 26 25
9 8 10 11 12 13 15 15 13 12 12 12 12 11 11 11 12 12 11 11 11 11 10 9 9 10 11 11 10 10 9 9 8 7 8 8 8 8 9 10 10 10 11 11 12 13 14 13 12 12 12 13 15 17 19 22 22 21 26 37 45 48 48 45 40 36 37 40 40 36 33 32 30 27 24 23 24 24 22 19 20 24 25 26 26
11 11 12 14 14 15 15 13 11 11 12 11 11 11 12 12 11 10 10 10 11 11 10 9 8 7 10 10 8 7 7 8 7 7 6 7 7 7 8 9 10 9 9 9 10 10 10 10 10 9 10 10 13 16 17 19 21 21 22 28 36 41 44 44 40 36 36 36 36 35 32 30 29 26 23 21 20 20 18 17 20 23 23 23 25
14 15 15 14 14 13 12 12 10 10 10 10 9 10 13 13 11 9 9 8 8 9 9 9 8 7 7 8 7 5 4 6 6 6 6 6 6 6 6 7 8 8 7 7 6 6 7 8 9 8 8 8 9 12 14 16 19 22 25 27 30 33 36 37 37 36 35 34 33 33 32 30 27 24 23 21 18 16 16 17 19 21 19 20 22
13 15 15 15 15 13 12 12 12 11 10 10 10 9 10 10 9 9 9 8 7 6 6 7 7 6 5 5 6 7 7 6 5 4 3 4 5 5 5 6 6 6 6 5 4 5 6 7 8 7 7 7 7 9 12 15 16 18 22 25 28 30 31 31 31 32 33 32 31 30 30 28 25 23 23 22 19 15 14 14 16 16 16 16 18
17 16 17 17 17 17 16 15 13 12 11 10 11 10 10 9 8 8 8 7 6 5 6 6 6 5 4 5 7 7 6 6 5 5 5 6 6 5 5 5 5 5 4 3 3 3 4 4 5 6 6 6 7 8 10 12 14 16 19 22 25 26 26 27 28 29 29 29 29 28 27 26 23 22 21 20 17 15 13 12 12 13 13 13 13
22 22 21 20 20 20 20 20 19 17 16 15 14 13 11 10 10 10 10 9 7 6 7 7 6 6 6 6 6 7 6 6 6 6 6 6 5 4 4 4 4 4 3 2 3 4 5 5 4 4 4 5 7 9 10 11 12 14 16 19 21 22 23 24 25 26 25 25 25 25 24 22 19 18 17 16 14 12 11 11 11 11 11 11 12
23 22 21 20 19 19 19 20 20 20 19 18 17 17 16 16 15 14 13 14 13 12 11 11 10 11 11 10 9 8 7 7 8 8 7 6 5 4 3 3 3 3 2 1 2 3 5 5 4 4 4 5 7 9 10 11 12 12 14 16 17 18 18 18 19 20 20 20 20 20 20 18 16 14 13 12 11 10 8 8 9 10 11 11 10
23 22 21 20 20 19 19 18 18 18 18 17 18 18 18 18 19 19 18 19 19 18 17 16 16 17 19 20 19 16 14 12 11 10 8 6 5 3 3 3 3 3 3 2 1 2 2 2 3 3 4 5 6 7 9 11 12 13 13 14 16 16 16 15 15 16 16 16 16 16 15 14 13 12 10 9 9 9 8 6 5 7 9 11 11
23 23 22 21 20 19 18 18 18 18 17 16 17 18 18 19 20 20 19 19 19 18 18 18 18 18 19 21 23 23 23 22 20 17 15 13 12 9 6 5 4 3 3 2 2 2 1 2 2 3 3 4 4 6 7 9 10 11 12 14 16 16 16 15 15 15 15 14 14 13 12 11 10 10 9 8 7 8 8 8 7 6 6 9 13
24 23 23 23 22 21 20 20 19 18 17 17 17 18 18 18 19 19 19 19 20 20 19 19 20 20 20 22 24 26 26 26 26 25 24 23 22 19 15 13 11 8 6 7 7 5 3 2 3 3 4 4 4 5 6 7 8 9 10 13 15 15 15 16 16 16 15 13 13 12 11 10 9 9 9 9 8 7 6 7 8 9 8 8 11
23 23 23 23 23 23 23 23 21 20 19 19 18 18 19 19 19 20 20 20 20 20 20 20 20 20 21 23 27 29 28 27 27 28 28 27 26 26 25 24 22 18 15 15 14 10 8 7 5 3 4 3 3 4 5 6 7 9 11 13 14 15 15 15 16 15 15 13 13 12 11 9 9 8 7 8 9 10 9 7 7 8 9 9 8
Wind_Direction
187 188 190 191 193 194 196 198 199 200 201 201 202 205 207 208 208 208 209 208 208 208 207 205 203 203 204 204 204 204 203 203 205 206 206 208 209 208 207 207 206 206 205 204 206 210 215 217 217 214 211 213 217 217 218 218 211 210 213 216 218 219 219 220 224 236 234 234 234 199 189 201 206 205 213 217 220 226 232 236 238 237 239 245 250
189 190 191 193 194 194 195 197 199 200 200 201 203 205 207 207 208 207 207 209 208 208 208 207 205 203 203 204 204 204 204 204 204 205 206 207 209 210 210 208 208 207 206 206 206 207 212 216 217 217 212 211 214 215 216 217 213 211 213 216 217 217 218 218 219 227 234 234 231 220 209 207 206 208 211 212 218 229 232 233 236 237 238 244 248
192 193 194 194 195 195 196 197 198 199 198 200 202 204 206 207 208 207 206 208 208 208 208 208 206 204 204 204 205 205 206 206 205 205 207 208 208 209 211 210 209 208 208 208 207 206 209 214 216 216 214 212 213 213 214 214 214 213 213 216 217 216 217 218 216 219 229 232 230 227 226 222 216 213 215 217 221 230 237 237 238 237 236 239 244
193 193 194 195 194 195 196 195 195 196 196 198 200 202 204 205 206 207 207 208 208 208 209 208 206 206 205 204 206 206 206 207 206 206 207 209 210 209 210 211 211 211 210 210 209 208 208 212 214 214 214 214 213 213 213 214 215 214 213 214 216 216 217 217 217 218 223 229 229 227 227 230 228 222 219 222 223 226 236 241 241 236 231 234 240
193 191 192 194 195 196 196 195 194 195 196 198 200 202 204 204 204 206 206 207 208 207 207 207 206 206 205 205 206 206 207 207 207 207 208 210 211 211 211 212 213 213 213 213 212 210 210 211 212 212 212 213 214 213 214 215 216 216 214 214 215 216 217 217 218 218 220 226 230 229 229 230 228 225 224 224 222 224 231 237 240 238 231 232 237
194 191 191 192 195 195 195 196 196 196 198 200 201 203 203 204 204 203 204 207 208 207 206 206 206 206 206 207 207 207 208 208 208 208 209 211 212 213 213 214 215 215 216 216 215 214 212 212 213 212 211 212 213 214 215 216 218 218 216 215 215 215 215 217 218 217 218 224 229 230 231 229 225 224 224 222 220 221 225 230 236 239 236 235 236
195 193 192 193 195 195 196 198 198 198 200 202 203 203 203 204 205 204 204 206 207 206 205 205 206 207 207 207 208 208 208 209 209 209 210 211 212 212 213 214 215 217 217 218 217 217 216 215 214 214 213 213 213 214 214 215 217 219 218 215 214 213 213 215 217 216 215 219 225 229 231 231 228 226 225 222 219 221 223 224 227 234 238 239 238
196 194 193 195 196 197 197 199 199 201 202 202 203 204 204 205 206 206 205 205 207 208 206 204 204 206 207 208 209 210 209 208 209 210 210 211 212 212 213 214 215 216 217 218 218 218 218 218 217 217 216 216 215 215 214 214 214 217 218 216 214 213 212 212 214 216 216 215 219 224 228 231 230 228 226 219 215 219 224 224 225 230 234 237 240
196 195 195 197 198 197 198 199 200 202 202 202 203 204 205 206 207 207 206 205 207 210 209 207 203 204 207 208 209 210 210 209 210 209 209 210 212 213 213 214 214 214 215 216 218 218 219 218 218 218 219 219 218 217 216 216 215 215 215 215 214 214 213 212 211 213 215 216 217 218 220 224 224 222 220 216 215 218 222 226 230 234 237 237 240
195 198 197 197 198 197 198 199 200 201 202 203 203 204 205 206 206 207 207 206 207 209 211 211 207 204 205 207 208 210 211 212 211 210 210 210 212 213 213 214 215 215 215 215 216 218 219 220 220 219 219 220 220 220 219 219 218 217 216 214 213 213 213 212 212 212 212 214 216 214 214 218 219 218 218 219 221 220 218 222 228 233 238 240 241
193 198 199 196 196 197 197 199 200 201 202 203 204 204 205 206 207 207 208 208 207 207 209 212 211 207 205 206 208 210 213 215 213 212 212 212 212 213 214 214 215 216 217 216 216 218 219 221 222 221 220 220 220 220 220 220 221 220 219 217 216 215 213 211 212 213 212 213 215 214 215 217 216 217 219 221 222 220 218 219 222 224 227 231 236
193 196 198 195 194 196 197 198 199 201 202 203 204 204 205 206 207 207 207 208 208 207 208 210 212 212 207 206 208 211 214 216 215 214 214 214 214 213 214 215 216 217 218 218 218 218 219 221 223 223 223 222 220 220 220 221 222 221 220 219 220 220 218 215 214 213 212 213 214 214 216 217 216 214 215 217 219 220 218 217 218 217 219 224 229
195 194 197 195 192 194 195 197 199 201 203 204 204 204 204 206 207 207 207 207 207 207 208 209 211 214 212 209 209 213 216 216 216 216 216 216 215 214 214 216 217 218 219 220 220 220 220 221 222 224 225 224 222 221 220 221 222 222 221 220 221 222 222 221 220 218 216 215 216 217 216 215 214 214 213 215 219 219 215 213 216 217 218 223 227
199 193 194 195 192 192 194 196 199 202 203 203 204 203 204 206 207 208 207 206 206 207 209 209 211 214 216 215 213 215 217 218 218 218 218 218 217 216 216 217 219 220 221 220 221 222 223 222 222 224 224 225 224 222 220 220 220 220 220 220 221 222 223 223 223 222 220 220 220 220 219 216 216 217 217 218 221 220 213 211 215 217 219 223 228
204 194 192 193 192 191 193 195 198 201 202 203 204 204 205 206 207 207 208 207 208 209 209 210 211 213 216 218 218 218 219 220 220 220 220 220 219 218 218 218 220 222 222 222 223 224 225 225 225 225 224 224 225 223 220 219 219 219 219 220 221 222 223 224 223 221 221 222 222 223 222 219 219 222 221 220 221 221 216 212 213 216 222 229 230
207 197 190 192 192 191 192 194 196 200 202 202 204 205 206 206 206 206 208 209 210 211 212 213 214 215 216 218 221 223 222 221 222 222 222 221 220 219 219 219 221 222 223 223 224 225 226 226 227 227 226 226 227 226 223 219 218 218 219 220 222 223 224 227 226 223 222 223 224 224 222 220 221 223 223 221 219 216 211 207 209 211 218 227 229
207 201 193 191 192 191 191 193 195 198 200 201 204 206 206 206 206 206 208 210 211 212 214 215 216 217 218 219 221 225 225 224 225 225 224 221 219 219 219 219 222 224 225 224 225 226 227 227 226 227 228 227 227 228 225 219 216 218 219 220 221 223 226 229 229 227 225 225 226 225 223 222 222 222 222 221 219 213 204 199 201 205 207 210 216
206 203 196 192 192 191 191 193 194 197 200 202 203 203 204 205 206 207 208 211 213 214 214 216 217 218 219 220 222 225 227 227 228 228 227 223 219 218 219 219 222 226 228 228 228 228 228 228 227 227 228 228 227 227 226 221 217 217 220 220 221 223 226 227 228 228 226 226 227 226 225 224 225 225 223 221 217 212 207 203 200 201 204 203 205
207 203 199 193 192 191 191 193 195 198 200 202 201 201 201 203 205 207 209 211 215 216 215 216 218 220 221 223 224 226 227 229 231 232 231 227 222 219 218 218 222 227 229 229 230 231 231 231 230 228 228 228 226 226 226 222 218 219 220 220 221 224 225 225 225 224 222 222 223 223 223 224 226 226 226 224 221 215 212 209 202 200 205 207 204
206 202 199 193 191 192 193 195 197 200 201 202 202 201 201 202 203 205 208 211 215 218 219 219 220 222 223 225 227 228 228 230 232 234 234 231 226 221 217 218 222 226 228 230 232 234 235 235 234 232 231 229 227 227 227 224 221 220 220 220 222 226 226 224 223 222 219 218 219 219 220 221 222 224 224 224 222 217 213 210 204 201 206 211 209
202 199 196 192 191 193 195 197 199 201 202 202 203 203 201 202 203 204 207 210 213 216 220 222 223 224 224 225 228 229 229 230 232 234 235 234 231 224 219 220 224 227 230 232 234 236 238 238 239 239 236 232 229 228 228 227 224 221 221 223 227 229 226 223 224 223 220 217 214 214 215 215 215 215 216 216 216 213 211 211 208 205 207 211 213
196 194 193 190 190 192 196 198 199 201 201 201 202 203 203 203 204 205 206 210 211 213 217 221 225 227 227 226 227 229 231 231 233 234 234 235 233 229 225 225 227 229 231 234 235 239 241 241 242 244 243 239 234 231 231 231 228 224 224 227 229 228 224 222 223 221 217 212 207 206 208 208 206 205 206 208 209 208 208 210 210 210 212 216 218
190 188 188 188 187 190 196 198 198 200 202 202 202 203 203 203 204 205 205 208 210 211 213 216 222 228 231 231 230 231 231 231 233 235 235 235 235 233 232 231 230 229 230 234 237 239 242 243 244 245 246 244 240 235 233 233 231 229 229 228 228 226 222 220 218 214 210 206 202 201 203 202 201 200 200 202 203 204 206 209 211 211 211 215 220
182 180 183 186 186 188 193 197 199 200 201 201 202 203 202 204 205 205 205 206 209 211 211 212 217 224 231 236 237 237 236 235 235 237 237 237 236 236 235 233 231 229 229 232 236 239 242 244 244 246 247 247 246 241 237 235 234 233 232 229 226 224 222 218 213 209 205 202 201 202 201 199 198 198 197 197 198 200 204 207 209 210 208 209 215
174 174 177 182 187 189 193 196 196 197 199 200 201 201 201 202 205 206 205 205 208 211 211 211 214 219 226 233 239 242 242 242 243 243 242 241 240 239 238 235 233 231 229 231 235 238 240 243 244 245 246 248 249 247 242 239 237 235 234 231 226 223 222 219 213 207 204 203 203 204 203 201 200 198 196 194 192 193 195 198 200 201 199 196 196
163 167 169 177 185 192 197 196 191 192 197 198 197 198 200 203 206 206 206 206 208 211 212 213 215 218 223 230 237 241 243 246 251 254 249 243 239 238 236 235 234 232 231 232 235 237 239 242 244 245 246 247 249 249 247 244 241 237 235 231 227 223 222 220 215 210 208 206 205 205 205 203 200 196 193 191 188 188 188 188 188 188 184 176 168
151 160 165 173 184 194 201 195 182 184 195 200 201 201 202 205 206 204 205 207 208 210 211 213 217 219 222 226 230 234 240 243 247 258 251 244 244 243 240 237 235 233 232 233 234 236 238 241 244 246 247 249 250 251 252 249 244 239 235 231 227 224 223 222 219 215 213 210 208 207 205 200 194 191 188 186 186 187 187 186 184 180 177 173 165
155 163 169 177 186 195 200 191 181 185 191 194 202 204 205 210 208 199 203 210 211 208 207 212 222 228 230 231 226 222 221 194 111 85 75 74 309 274 263 254 248 243 240 240 240 240 241 244 248 251 252 253 253 254 253 248 242 238 235 231 228 226 224 224 222 219 216 214 210 206 200 193 188 186 185 184 184 184 186 187 184 177 176 177 173
171 177 184 187 187 192 194 185 184 186 165 124 94 105 164 193 186 165 170 194 205 207 202 201 208 211 195 112 96 120 96 76 66 43 27 29 13 305 279 274 266 258 255 254 251 249 248 250 253 255 256 255 254 253 252 247 242 239 236 232 230 227 225 224 223 220 217 213 208 201 195 190 186 184 183 182 181 183 185 186 182 177 175 176 173
169 165 164 163 172 184 191 183 183 186 160 126 101 88 92 108 122 124 127 140 159 173 163 144 132 121 100 79 65 65 66 58 40 14 358 337 315 292 265 253 251 251 254 255 254 252 250 249 250 251 252 252 251 250 249 247 242 240 237 234 231 229 228 228 226 223 218 212 206 199 193 188 185 182 180 177 177 181 184 183 178 174 171 169 166
82 88 63 52 87 128 166 176 180 184 161 140 126 105 94 90 89 93 99 107 117 121 113 107 105 101 93 85 79 74 70 64 54 43 34 20 2 343 309 282 264 252 248 247 246 246 244 243 245 246 247 248 250 250 249 247 245 243 241 238 234 232 230 230 229 226 219 212 206 199 192 188 185 182 179 175 174 177 179 178 174 171 169 166 163
64 75 60 51 64 63 54 114 150 143 130 134 130 115 103 94 83 81 85 89 97 101 95 94 97 95 96 100 99 92 85 76 65 54 45 39 30 18 2 345 333 315 282 263 255 253 252 251 253 254 254 254 255 255 254 253 251 248 244 240 236 232 230 229 227 223 216 209 203 196 191 189 185 180 177 174 172 173 174 172 170 168 166 163 159
66 78 70 57 66 65 52 62 92 102 115 132 132 121 116 110 98 93 91 88 91 95 95 95 99 98 98 98 93 85 79 70 60 52 44 36 29 24 21 17 13 13 14 5 313 276 270 269 268 269 269 268 267 267 265 262 258 253 249 245 241 237 234 231 227 223 217 209 200 193 189 187 183 177 174 173 171 169 166 165 165 164 161 158 158
69 81 86 74 73 76 66 60 68 79 99 125 131 124 119 120 120 115 106 97 94 93 91 92 96 98 96 92 84 78 71 63 57 51 43 36 33 33 34 30 22 17 17 18 7 336 302 289 283 281 280 279 279 279 277 273 269 263 256 252 249 247 241 233 225 222 218 209 198 190 186 183 179 173 169 166 162 159 158 160 162 161 159 159 162
86 87 92 90 84 80 76 72 71 76 92 119 131 125 123 127 129 125 119 112 105 98 91 86 85 89 92 88 80 74 67 60 54 49 41 34 34 37 38 32 23 16 12 8 358 340 317 302 294 291 289 286 286 285 283 281 280 276 271 265 259 253 246 236 225 219 212 202 194 187 180 177 176 171 163 158 155 154 156 160 161 161 162 165 169
113 107 95 87 80 73 76 82 83 84 90 105 120 122 125 129 126 120 117 116 112 109 106 95 84 83 87 86 79 71 65 59 51 45 38 32 32 35 35 28 21 16 11 5 353 339 325 314 306 301 296 291 289 287 286 285 283 281 279 276 271 265 256 244 232 221 209 194 182 176 171 168 168 165 159 154 154 155 156 158 159 161 165 171 178
95 101 92 86 81 75 77 84 87 88 86 83 82 90 100 106 110 112 115 115 111 110 112 105 91 81 77 77 74 70 68 64 54 44 39 35 34 36 36 30 25 19 12 6 360 350 341 333 326 320 312 304 300 298 295 293 289 285 282 277 273 273 270 262 248 229 206 179 161 158 160 161 162 163 158 151 149 152 155 157 159 163 171 179 186
74 84 89 98 98 90 86 89 93 95 93 88 84 79 78 87 99 107 112 114 113 105 96 90 82 70 60 59 60 66 75 72 58 46 40 35 33 33 32 30 26 19 13 10 6 0 356 353 349 345 339 338 338 334 329 326 327 326 313 294 283 280 274 260 239 201 169 154 148 150 154 154 152 151 147 141 142 147 152 156 161 168 179 187 188
94 100 105 112 113 108 107 110 105 98 96 98 100 101 99 99 105 113 115 113 107 96 89 83 72 60 56 58 57 59 65 65 55 47 42 37 33 30 28 27 23 15 10 9 6 3 4 4 3 3 6 11 13 13 17 27 44 52 49 39 27 21 6 316 196 161 147 141 140 141 141 138 135 135 136 137 141 145 150 159 169 177 186 191 187
106 90 81 105 123 120 110 104 101 100 103 106 108 111 115 115 116 115 109 102 97 94 94 94 82 65 59 63 62 59 58 58 54 49 44 38 35 31 28 28 24 15 11 12 9 7 7 5 4 8 18 29 35 38 41 44 49 58 66 69 67 60 51 43 53 95 110 109 108 109 111 112 117 124 134 143 150 153 157 166 176 183 187 188 184
104 76 60 74 96 95 80 73 77 89 101 107 104 98 95 96 102 108 108 107 109 107 102 102 94 69 55 60 67 64 62 63 62 58 53 45 39 36 33 29 25 19 16 16 13 10 8 8 6 7 16 33 46 52 56 59 59 59 68 76 80 81 79 73 66 69 79 89 95 98 101 107 114 122 134 149 159 165 170 178 187 188 183 178 175
93 81 72 74 81 85 81 78 78 82 90 100 107 107 101 94 93 102 110 113 118 117 112 115 115 83 56 59 71 74 74 76 70 62 59 52 44 42 39 31 25 24 26 24 19 12 8 8 12 11 9 22 41 49 54 62 67 67 70 77 82 87 93 97 96 93 92 98 106 112 118 126 133 139 148 160 167 174 185 195 194 186 176 168 171
87 78 74 73 75 83 91 94 91 86 88 95 98 104 112 116 118 118 114 108 110 116 116 117 118 104 73 58 52 47 60 77 75 69 68 60 47 41 42 35 27 26 31 29 23 18 11 4 3 5 5 9 27 47 59 70 75 75 75 78 84 91 97 104 109 112 113 117 123 128 134 140 144 148 158 170 179 187 194 189 180 173 166 161 165
92 91 87 79 71 70 75 82 87 90 95 100 95 88 97 110 117 119 116 107 102 107 111 110 113 119 113 90 68 48 40 50 60 60 65 66 50 33 36 44 41 35 33 28 19 19 18 9 359 355 2 15 33 55 74 82 86 85 85 87 91 96 101 107 113 118 123 126 129 132 137 145 152 160 171 181 187 188 182 169 162 162 161 159 162
54 66 72 67 61 55 51 53 64 75 80 85 87 85 86 93 94 91 92 94 94 92 87 85 88 90 86 82 76 62 46 44 42 23 23 44 49 28 16 32 49 48 38 19 7 13 16 17 11 1 6 34 60 73 82 89 93 96 98 101 104 106 111 117 123 127 131 133 135 137 143 150 158 166 174 179 179 174 168 166 165 163 164 169 174
44 50 55 55 54 51 43 39 42 47 49 52 57 59 62 69 76 77 73 66 63 68 70 65 64 68 66 61 64 64 55 46 42 33 29 40 51 36 7 13 40 60 56 359 358 31 45 45 37 29 36 65 86 91 89 93 102 107 109 112 114 116 118 123 129 133 135 137 140 144 149 153 156 161 165 168 169 167 167 173 175 173 174 180 185
45 46 48 49 50 50 47 42 41 42 43 44 44 42 38 39 46 55 58 51 46 50 56 52 45 46 43 35 38 54 58 46 42 47 53 57 59 52 36 28 34 52 71 45 357 27 51 57 53 56 70 84 97 103 102 102 108 113 116 119 123 124 125 125 127 130 133 135 139 145 150 152 152 155 161 167 171 173 173 173 179 187 191 192 192
46 45 45 45 45 45 44 43 42 42 42 42 42 42 39 35 35 39 43 44 42 43 46 45 41 39 36 30 30 39 49 49 45 45 48 49 44 32 40 55 48 33 42 56 29 1 29 59 65 73 87 93 98 105 112 116 117 119 124 129 132 134 134 133 132 133 135 136 137 142 149 155 158 159 165 172 177 184 189 188 186 190 193 195 201
50 49 48 47 46 45 44 43 43 43 42 42 43 42 40 38 37 37 38 40 39 37 38 38 37 37 36 34 33 38 43 46 46 44 39 33 28 19 10 18 26 21 25 40 28 3 28 84 91 85 91 104 112 114 119 123 122 123 129 135 138 137 137 136 137 138 140 143 144 145 148 154 160 164 171 176 176 180 190 199 207 213 208 200 201
55 56 56 53 51 49 47 47 47 46 45 47 48 46 43 43 42 40 38 38 37 35 35 36 37 36 37 38 40 43 44 44 46 47 43 37 35 35 32 26 21 19 22 19 10 3 17 64 103 113 103 102 117 126 128 132 137 139 139 140 141 143 144 143 142 141 140 143 148 151 151 152 156 164 175 184 186 186 193 199 205 216 226 218 202
56 58 58 57 55 53 50 48 47 47 47 49 50 49 47 46 44 43 43 42 40 38 37 37 38 38 38 41 45 47 46 44 46 47 45 40 38 40 41 37 35 36 35 27 20 17 21 26 39 89 117 115 123 139 147 153 157 157 156 155 155 157 158 155 152 149 146 144 145 148 151 154 155 158 168 182 190 199 210 216 211 213 222 226 212
Height
732 734 737 740 743 747 751 754 757 760 763 767 769 771 773 775 778 781 783 785 787 790 792 793 795 797 800 802 804 806 807 809 811 812 814 816 817 819 820 820 822 823 824 825 826 828 829 830 831 832 833 835 836 837 838 839 839 840 841 842 842 843 844 844 844 844 844 844 845 845 845 845 846 847 848 849 849 850 850 851 851 852 852 852 853
727 730 732 736 739 742 746 749 753 756 759 762 765 767 769 772 774 777 779 782 784 786 788 790 792 794 796 799 801 803 804 806 808 809 811 812 814 816 817 817 819 820 821 822 823 824 826 827 829 830 831 832 833 834 835 836 837 838 839 840 840 841 841 842 843 843 843 843 844 844 844 844 844 845 846 847 847 848 848 848 849 849 850 851 851
723 727 729 732 735 739 742 745 748 752 755 758 760 763 765 768 770 773 775 778 780 782 784 786 789 791 793 795 797 799 801 802 804 805 807 808 810 812 813 814 815 816 817 818 819 821 823 824 826 828 829 830 831 832 833 834 834 835 836 837 838 839 840 840 841 841 842 842 842 842 842 843 843 843 844 845 846 846 846 846 847 848 848 849 849
720 723 727 730 733 735 738 741 744 747 750 753 756 759 761 764 767 769 772 775 777 779 781 783 786 787 789 792 793 795 797 798 800 802 803 804 806 807 809 810 811 813 814 815 816 817 819 820 822 824 826 827 828 829 830 831 831 832 833 834 835 836 837 838 839 839 840 840 840 840 840 841 841 842 842 843 844 844 845 844 845 846 846 847 847
716 719 722 727 729 732 735 738 741 743 746 749 752 755 758 760 763 766 768 771 773 775 778 780 782 784 785 787 789 791 792 794 796 798 799 801 802 803 805 807 808 809 811 812 813 814 815 817 819 821 823 824 825 826 827 828 829 829 830 831 832 834 835 835 836 837 837 837 838 838 838 839 839 840 840 841 841 842 843 843 843 843 844 845 845
711 714 718 721 724 728 731 733 736 740 742 745 748 751 754 757 759 762 764 767 769 771 773 775 777 779 781 783 785 786 788 790 792 794 796 797 799 800 802 803 805 806 808 809 810 811 812 814 816 817 819 820 821 823 824 825 826 827 827 828 829 831 832 833 833 833 834 834 835 835 836 836 837 837 837 838 839 839 840 841 841 842 842 842 843
707 710 713 716 719 722 724 728 731 734 737 740 744 747 750 753 755 757 760 762 765 767 769 770 772 774 776 778 780 782 783 786 788 790 792 794 795 797 798 800 802 803 804 806 807 809 810 811 812 813 814 815 817 818 820 822 823 824 825 826 827 827 828 829 830 830 830 831 832 832 833 834 834 834 835 835 836 837 837 838 839 839 839 839 840
702 705 708 711 713 715 718 722 726 729 732 735 739 743 745 748 750 753 756 758 761 763 764 766 767 770 772 773 776 778 779 781 783 785 788 790 792 793 795 797 798 799 801 802 804 805 806 807 808 808 809 810 812 814 815 817 819 820 821 823 823 824 824 825 826 827 827 827 828 829 830 831 831 832 833 833 833 833 834 835 836 836 837 837 837
698 701 703 705 708 711 715 718 721 725 728 731 734 737 740 743 746 748 751 753 756 758 760 762 763 765 767 769 772 774 776 776 778 780 783 785 788 789 790 792 793 795 796 798 799 801 802 803 803 803 804 805 807 809 810 812 813 814 816 818 819 820 820 821 822 823 824 824 824 826 827 827 828 829 829 829 829 830 831 833 833 834 835 834 834
692 696 698 700 705 708 712 714 717 720 724 726 729 732 735 738 741 744 746 748 751 753 756 758 760 761 763 765 768 769 770 771 772 774 777 779 782 784 785 787 788 790 791 793 794 796 797 798 798 799 800 801 802 804 805 807 807 808 810 812 814 815 816 817 818 819 819 820 821 822 822 822 823 824 825 825 826 827 829 830 830 831 833 833 832
686 690 693 696 701 704 707 710 713 716 719 722 724 727 731 734 736 738 741 744 746 749 752 754 756 757 759 760 762 763 764 765 766 768 770 773 776 778 780 782 784 786 787 788 789 791 792 794 794 795 795 795 797 798 800 802 802 804 805 806 808 809 810 812 813 814 815 816 816 817 817 818 819 820 821 822 824 824 825 826 827 828 830 830 829
682 685 689 693 696 699 703 706 709 712 714 717 720 723 726 729 731 734 736 739 742 744 747 749 751 753 754 755 757 757 758 759 761 763 765 767 770 773 776 778 779 781 782 783 784 786 787 788 790 790 790 790 792 793 795 797 798 799 801 802 803 804 805 806 807 809 810 811 812 812 812 813 814 816 817 818 819 820 821 822 823 824 826 826 827
678 681 684 688 691 695 699 703 705 708 711 713 716 719 722 725 727 729 732 735 738 740 742 744 746 749 749 750 751 752 753 755 756 758 760 762 765 768 771 773 774 775 777 778 780 781 781 782 784 785 785 786 788 789 790 791 793 795 797 798 799 799 800 801 802 803 805 806 806 806 807 808 810 811 812 814 815 816 817 818 820 821 822 823 824
675 677 680 684 687 691 695 698 702 705 708 711 714 716 718 720 723 726 729 731 734 735 737 739 741 743 745 745 747 748 749 751 752 754 755 757 760 763 765 767 768 769 770 772 774 775 775 777 778 779 781 782 783 783 784 786 788 790 792 793 794 794 796 796 797 799 800 801 801 801 802 804 805 806 808 810 811 812 813 815 817 818 820 821 823
671 673 676 680 683 687 691 694 698 702 705 708 711 712 714 716 720 723 726 727 729 730 732 735 736 738 740 742 743 743 744 746 748 749 751 753 756 758 760 761 763 763 765 767 768 769 770 771 772 774 776 777 777 778 779 781 783 785 787 787 788 789 790 790 791 793 794 795 795 797 798 800 802 803 805 806 807 809 810 812 815 817 819 821 822
669 671 673 676 680 683 687 691 694 698 701 705 707 710 712 714 717 720 722 724 725 727 729 731 732 734 735 738 739 739 740 741 743 744 745 748 751 753 755 756 757 758 759 761 762 763 765 766 767 769 771 771 772 773 774 777 780 781 782 782 783 784 784 784 785 787 788 790 791 793 795 797 799 800 801 803 804 805 807 809 812 814 817 819 821
666 668 670 673 676 680 684 688 691 694 698 700 703 706 708 711 714 717 719 721 722 724 725 726 728 730 731 733 734 734 735 737 738 738 740 742 745 748 750 751 753 753 754 755 757 757 758 760 762 764 765 766 767 769 771 773 775 776 777 777 779 779 779 779 780 782 784 786 788 790 792 794 796 797 798 800 800 801 803 804 806 809 811 814 816
663 665 668 671 674 677 681 684 688 691 694 696 699 702 705 708 711 713 716 717 718 720 721 723 725 726 727 728 729 729 731 732 733 734 735 737 740 742 744 747 749 749 750 751 752 752 752 754 755 757 758 760 763 765 767 769 770 771 771 772 774 773 772 774 776 778 780 783 784 787 789 790 792 793 795 796 797 797 798 799 801 804 806 808 810
660 663 666 669 672 675 678 681 685 687 690 693 696 699 702 705 708 711 713 714 715 717 718 720 721 721 723 724 725 726 727 729 730 731 732 734 736 738 741 744 744 744 745 746 747 748 748 749 750 751 753 755 758 759 761 762 763 764 766 767 767 764 764 767 769 771 773 776 778 780 782 784 786 788 790 792 793 794 794 795 797 800 802 804 805
658 661 664 667 670 673 675 679 682 684 688 691 694 696 699 702 705 707 709 711 712 714 715 716 717 718 719 721 722 723 724 726 727 728 729 731 733 735 738 739 738 738 741 743 744 745 746 746 747 748 749 751 752 753 754 755 755 757 759 759 757 755 758 762 763 763 765 767 769 772 775 777 780 783 785 787 789 790 791 792 794 796 798 801 801
656 659 662 665 668 670 673 676 679 683 686 689 692 694 696 698 701 703 706 708 709 710 712 713 714 715 716 717 718 719 721 722 723 724 726 728 730 732 734 733 734 736 739 741 742 742 743 744 745 745 746 747 748 748 748 748 748 750 750 748 746 749 754 757 758 759 761 762 764 767 769 771 774 776 778 780 782 784 786 788 790 791 793 795 796
654 657 660 663 666 669 672 675 678 682 685 687 690 692 693 696 698 699 702 704 705 707 709 710 711 712 713 714 715 716 717 719 720 720 722 725 727 729 730 730 733 736 738 739 739 739 740 741 742 742 742 743 744 744 743 743 744 743 740 739 741 745 748 750 752 754 755 755 757 759 760 762 764 767 769 771 774 777 779 782 784 786 788 791 792
651 654 658 661 664 668 671 674 677 680 682 685 687 689 691 693 695 696 698 700 702 704 705 707 709 709 710 711 712 713 714 715 716 717 719 721 724 725 726 728 731 733 734 734 734 735 736 737 738 739 739 739 739 739 739 740 739 736 734 735 738 740 742 745 746 746 747 748 749 749 749 751 754 756 758 761 764 768 771 775 778 781 784 788 789
650 653 656 659 663 666 670 673 675 677 680 683 685 687 689 691 692 694 695 697 699 701 702 704 705 706 708 709 710 711 712 712 713 714 715 717 719 721 722 724 726 728 728 729 730 731 732 733 733 734 734 734 734 734 733 732 730 728 729 732 735 738 740 741 740 741 741 742 741 740 740 741 743 745 747 750 754 759 764 768 772 776 780 784 785
650 652 655 658 662 665 668 671 673 676 678 681 682 684 687 689 690 691 693 694 696 698 699 702 703 704 706 707 708 709 710 710 711 712 713 714 715 716 717 719 720 722 723 724 725 726 727 728 729 729 730 729 729 728 726 724 723 723 726 729 732 734 735 735 735 735 735 734 736 737 738 738 738 739 742 745 749 754 758 762 766 771 775 779 780
651 653 655 658 661 664 667 669 672 674 677 679 681 683 685 686 688 689 691 692 694 696 698 700 701 703 704 705 707 708 708 709 710 710 710 711 711 712 713 714 716 717 718 719 720 721 722 724 725 725 725 724 723 722 720 719 720 721 722 724 726 728 728 728 729 728 726 726 728 730 732 735 738 741 743 745 747 750 753 757 761 765 768 771 775
652 654 656 658 661 663 666 668 670 673 676 678 680 682 683 684 686 687 689 691 692 694 696 698 699 701 702 703 705 706 707 708 709 708 708 709 709 710 712 713 714 715 716 717 717 718 719 720 721 721 719 718 717 715 715 715 716 716 716 718 719 719 719 720 720 718 718 719 720 721 725 729 733 737 740 743 745 748 750 753 756 759 762 766 770
654 655 657 659 661 663 665 666 669 672 675 677 678 679 680 682 683 685 687 689 690 692 694 696 698 699 700 701 702 703 705 706 707 707 709 709 710 711 712 713 714 714 714 715 715 716 717 718 718 717 716 714 713 711 711 711 709 709 709 710 710 710 711 712 711 710 710 712 714 717 721 723 725 728 732 736 740 744 747 750 752 754 756 760 764
655 657 658 659 660 662 664 665 667 670 673 675 676 677 678 679 681 683 685 687 689 690 691 694 696 697 698 699 700 701 703 705 706 707 709 709 710 711 711 712 713 713 713 714 714 715 716 716 715 714 713 711 710 708 707 706 704 703 703 702 703 704 705 705 703 702 702 705 708 711 713 716 719 722 725 729 734 739 743 747 749 751 753 756 759
656 657 658 658 659 661 662 664 666 668 670 673 675 677 678 679 680 682 684 686 688 689 690 692 694 695 696 698 699 701 702 704 705 706 707 708 709 709 710 710 710 710 710 710 711 711 712 712 711 710 709 707 705 703 702 700 699 697 697 697 699 700 701 699 697 695 697 699 701 704 707 710 713 715 718 722 728 735 740 743 745 748 749 752 755
657 658 658 658 659 660 661 662 664 666 668 670 673 675 678 680 682 684 685 687 688 689 691 692 694 695 696 698 700 701 702 703 704 705 705 706 706 706 707 707 707 707 706 706 707 707 707 706 705 704 703 702 699 696 695 694 693 693 693 694 695 695 693 692 690 691 692 693 694 697 700 704 706 708 710 713 718 726 733 737 740 743 746 748 751
658 659 660 660 660 660 661 661 663 666 667 669 672 674 676 680 684 686 688 688 689 690 692 693 694 695 696 698 700 701 702 703 703 704 704 704 704 703 703 703 703 703 703 703 704 705 705 705 703 701 700 698 695 692 692 690 689 689 689 688 685 683 680 679 679 681 681 681 683 686 690 694 697 700 703 708 714 720 726 731 735 739 743 746 747
660 660 661 662 661 662 663 664 665 666 668 670 672 674 677 680 683 687 690 690 691 692 693 693 694 695 696 698 699 700 701 702 702 703 703 702 702 702 701 701 701 701 701 702 703 704 705 704 703 701 699 697 694 691 689 687 685 683 682 679 674 671 670 671 674 675 673 673 675 678 683 689 693 695 698 703 709 715 722 727 732 737 741 744 746
661 661 662 663 663 664 665 666 667 668 669 671 672 675 678 680 683 686 689 691 692 693 694 695 696 696 697 698 699 699 700 701 702 702 702 702 702 702 701 701 700 700 700 701 702 703 703 703 702 701 699 697 694 691 688 684 681 678 676 672 669 667 666 667 668 668 668 670 672 673 677 684 689 692 695 698 704 713 720 725 731 735 738 741 744
663 663 663 664 665 666 667 668 669 669 670 672 673 675 678 681 683 685 688 690 693 694 696 697 698 698 698 699 699 700 701 702 702 703 703 703 703 702 701 701 701 701 701 701 701 702 702 702 701 699 697 695 692 690 686 682 679 676 672 668 664 662 660 659 657 655 655 658 660 663 669 677 684 689 692 695 701 708 716 723 729 733 736 739 743
664 665 665 665 666 668 669 670 670 671 671 672 673 675 677 680 683 685 688 691 693 695 697 699 699 699 700 700 701 702 703 703 704 704 704 704 704 703 702 703 703 703 703 703 702 702 701 700 698 696 694 691 689 686 683 679 676 672 668 665 661 657 654 652 649 646 643 643 646 653 662 671 679 686 689 692 698 704 711 719 726 730 734 739 743
666 667 668 669 669 670 670 671 671 672 672 673 673 675 677 679 683 686 689 692 694 696 698 699 700 701 702 702 703 704 704 704 704 704 705 705 705 705 705 705 705 705 704 703 703 701 700 699 697 694 692 689 686 684 680 675 671 666 662 658 655 653 651 650 646 642 639 637 639 648 660 669 676 682 684 687 694 702 709 716 723 729 735 740 743
669 670 670 671 672 671 672 672 672 673 674 675 676 678 679 681 685 688 690 693 695 697 699 700 701 703 703 703 704 704 704 704 705 705 706 706 706 706 707 707 707 707 706 705 703 701 700 698 696 694 691 689 686 682 678 672 667 662 657 653 651 648 646 644 641 641 644 644 643 650 662 671 677 683 687 690 696 702 707 714 722 729 736 740 742
672 672 673 673 673 673 674 674 674 675 677 678 680 682 684 685 688 690 691 693 696 698 700 702 704 705 705 704 704 703 703 704 705 706 707 707 707 707 708 708 708 708 707 705 704 702 700 699 697 694 693 690 688 685 680 675 667 660 654 651 649 647 645 641 637 638 645 651 654 659 666 672 679 687 695 702 707 710 712 716 723 729 735 738 739
674 674 674 674 674 675 675 675 676 677 679 681 683 685 686 688 689 691 693 694 697 700 702 704 705 706 705 704 703 703 703 705 706 707 707 708 708 708 708 709 709 708 707 706 705 703 702 701 698 696 695 692 689 686 682 677 672 665 657 651 648 647 648 651 650 648 649 655 664 671 676 681 687 696 705 711 717 719 720 723 727 731 734 737 738
675 675 675 675 675 676 677 678 679 680 681 683 685 687 688 690 691 692 694 696 698 701 702 704 705 705 705 704 704 704 705 706 707 707 708 708 708 709 709 709 709 708 707 707 706 704 703 702 701 700 698 695 691 687 683 679 676 673 667 658 650 648 651 658 666 668 667 668 673 680 687 693 700 707 714 720 723 725 726 729 731 733 734 735 736
677 677 677 677 678 679 680 682 683 683 684 686 687 689 691 692 693 695 696 697 698 700 701 703 704 705 705 705 705 704 705 706 707 707 707 708 708 709 709 709 708 708 707 707 706 705 704 703 703 702 700 697 693 690 686 683 680 678 674 667 660 656 656 660 666 672 676 681 684 688 694 701 707 712 719 724 727 729 731 732 733 734 734 734 735
679 679 680 681 681 682 684 685 686 687 688 689 689 690 692 693 695 696 697 697 698 699 700 701 703 704 705 705 705 705 705 705 706 707 707 708 708 708 708 709 708 708 707 707 706 706 705 704 704 703 701 699 696 692 689 687 685 682 679 674 670 668 667 669 671 673 677 684 690 694 698 703 709 715 722 726 729 731 732 732 732 732 733 734 735
681 682 683 684 685 686 687 688 689 690 690 691 691 692 693 694 695 696 696 697 698 698 699 701 702 703 704 704 705 705 705 705 706 706 707 707 708 708 708 708 708 708 707 707 706 706 706 705 704 703 701 700 698 695 693 691 689 687 684 682 679 677 677 679 681 682 684 689 694 698 703 708 713 718 723 727 729 730 730 730 731 732 732 734 735
685 685 686 687 689 690 690 691 691 692 692 692 693 694 695 696 696 697 697 698 699 699 700 700 701 702 703 704 704 705 706 706 706 706 707 707 708 708 708 708 708 708 708 707 707 706 706 705 705 704 703 701 699 697 695 694 693 692 690 689 687 686 686 686 688 690 693 696 699 702 707 712 716 720 724 726 728 728 728 729 730 730 731 733 735
690 690 691 692 693 694 694 694 695 695 695 695 696 697 697 698 698 699 700 700 700 701 701 702 702 703 704 704 705 705 706 706 706 707 707 707 708 708 708 708 708 708 708 708 707 706 706 706 705 705 704 703 701 700 698 697 696 696 696 695 694 694 694 694 694 696 699 701 704 707 711 715 719 722 724 725 726 727 728 728 729 729 731 733 735
695 695 696 697 697 698 699 699 700 700 700 700 701 701 701 700 700 701 702 702 703 703 704 704 704 705 705 705 705 705 705 706 707 707 708 708 708 709 709 709 709 709 709 709 708 707 706 706 706 706 705 704 703 702 701 700 699 699 699 700 700 700 700 700 701 702 704 706 708 711 715 718 720 723 724 725 726 727 727 728 729 729 731 732 734
701 701 702 702 703 703 704 704 705 705 705 705 705 705 705 704 704 704 705 706 707 707 707 707 707 707 707 707 706 706 706 707 708 709 710 710 710 710 709 709 709 709 709 709 709 709 708 707 707 707 706 706 705 704 703 702 702 702 702 703 703 704 705 705 706 707 709 711 713 715 717 719 721 723 724 724 725 726 727 728 729 730 731 732 734
707 708 708 709 709 709 710 710 710 710 709 709 709 709 709 709 709 709 710 711 711 711 711 710 710 710 710 710 709 708 708 709 710 711 712 712 712 711 710 710 710 710 709 709 710 709 709 708 708 708 708 708 707 707 706 705 705 705 705 705 706 707 708 709 709 710 712 713 715 716 718 719 721 722 723 724 725 726 727 728 729 730 731 732 734
713 714 715 715 715 715 715 715 715 715 715 714 713 713 713 714 714 714 715 715 715 715 714 714 714 714 713 713 712 712 712 712 713 714 714 714 714 713 712 712 712 712 711 711 711 710 710 710 709 709 709 709 709 709 708 708 708 708 708 708 709 710 711 711 712 713 714 715 716 717 718 720 721 722 723 724 726 727 728 728 729 730 731 732 734
718 718 719 720 720 720 720 719 719 720 720 719 718 718 718 718 719 719 719 719 719 719 719 718 718 717 717 716 716 715 715 716 716 717 717 717 716 715 714 714 714 713 712 712 712 712 711 711 711 711 711 711 711 711 710 710 710 710 710 711 712 712 713 714 714 715 715 716 717 718 719 720 721 723 724 725 725 726 728 729 730 731 732 733 734